When you browse on this site, cookies collect data to enhance your experience and personalize the content and advertising you see.
Visit our Privacy Policy to learn more. By continuing to use the site, you agree to this use of cookies and data.
  • en Suisse
  • Liste des pays
  • À 7 jours
  • Température de l'eau
  • Carte satellitaire
  • Carte météo
  • Widgets météo
  • user-avatar
    Se connecter

    Météo par heure à Brisbane

    Ce jour, 23 Janvier, Mercredi

    Heure Température Précipitation Vent Pression Humidité
    00:00 +25°C° 0 mm 2 m/s 760 mmHg 86%
    01:00 +24°C° 0 mm 1 m/s 759 mmHg 88%
    02:00 +24°C° 0 mm 1 m/s 759 mmHg 89%
    03:00 +24°C° 0 mm 1 m/s 759 mmHg 90%
    04:00 +24°C° 0 mm 1 m/s 758 mmHg 91%
    05:00 +24°C° 0 mm 1 m/s 758 mmHg 86%
    06:00 +25°C° 0 mm 1 m/s 759 mmHg 82%
    07:00 +26°C° 0 mm 1 m/s 759 mmHg 77%
    08:00 +29°C° 0 mm 2 m/s 759 mmHg 66%
    09:00 +31°C° 0 mm 2 m/s 759 mmHg 55%
    10:00 +35°C° 0 mm 2 m/s 759 mmHg 47%
    11:00 +36°C° 0 mm 3 m/s 758 mmHg 44%
    12:00 +37°C° 0 mm 3 m/s 758 mmHg 41%
    13:00 +38°C° 0 mm 4 m/s 757 mmHg 38%
    14:00 +37°C° 0 mm 4 m/s 757 mmHg 42%
    15:00 +36°C° 0 mm 5 m/s 756 mmHg 46%
    16:00 +35°C° 0 mm 5 m/s 756 mmHg 50%
    17:00 +33°C° 0 mm 5 m/s 756 mmHg 56%
    18:00 +30°C° 0 mm 5 m/s 756 mmHg 62%
    19:00 +29°C° 0 mm 5 m/s 756 mmHg 69%
    20:00 +28°C° 0.2 mm 4 m/s 757 mmHg 73%
    21:00 +27°C° 0.2 mm 2 m/s 757 mmHg 78%
    22:00 +26°C° 0.2 mm 1 m/s 758 mmHg 82%
    23:00 +26°C° 0.1 mm 1 m/s 758 mmHg 82%

    Demain, 24 Janvier, Jeudi

    Heure Température Précipitation Vent Pression Humidité
    00:00 +26°C° 0.1 mm 1 m/s 758 mmHg 83%
    01:00 +26°C° 0.1 mm 1 m/s 758 mmHg 83%
    02:00 +25°C° 0 mm 1 m/s 758 mmHg 84%
    03:00 +25°C° 0 mm 1 m/s 757 mmHg 85%
    04:00 +25°C° 0 mm 1 m/s 757 mmHg 86%
    05:00 +26°C° 0 mm 1 m/s 758 mmHg 81%
    06:00 +27°C° 0 mm 1 m/s 758 mmHg 77%
    07:00 +27°C° 0 mm 1 m/s 759 mmHg 73%
    08:00 +30°C° 0 mm 1 m/s 759 mmHg 63%
    09:00 +33°C° 0 mm 1 m/s 759 mmHg 52%
    10:00 +36°C° 0 mm 1 m/s 759 mmHg 42%
    11:00 +37°C° 0 mm 2 m/s 758 mmHg 42%
    12:00 +37°C° 0 mm 3 m/s 758 mmHg 41%
    13:00 +37°C° 0 mm 4 m/s 758 mmHg 41%
    14:00 +36°C° 0 mm 4 m/s 757 mmHg 43%
    15:00 +36°C° 0 mm 4 m/s 757 mmHg 45%
    16:00 +35°C° 0 mm 5 m/s 757 mmHg 48%
    17:00 +33°C° 0 mm 4 m/s 757 mmHg 54%
    18:00 +30°C° 0 mm 4 m/s 758 mmHg 61%
    19:00 +28°C° 0 mm 3 m/s 758 mmHg 68%
    20:00 +28°C° 0 mm 3 m/s 759 mmHg 71%
    21:00 +27°C° 0 mm 3 m/s 759 mmHg 75%
    22:00 +27°C° 0 mm 2 m/s 760 mmHg 79%
    23:00 +26°C° 0 mm 2 m/s 760 mmHg 80%

    Après-demain, 25 Janvier, Vendredi

    Heure Température Précipitation Vent Pression Humidité
    00:00 +26°C° 0 mm 2 m/s 760 mmHg 81%
    01:00 +26°C° 0 mm 1 m/s 759 mmHg 82%
    02:00 +26°C° 0.1 mm 1 m/s 759 mmHg 83%
    03:00 +26°C° 0.1 mm 1 m/s 759 mmHg 85%
    04:00 +23°C° 0.1 mm 0 m/s 759 mmHg 87%
    05:00 +24°C° 0 mm 0 m/s 759 mmHg 83%
    06:00 +25°C° 0 mm 0 m/s 760 mmHg 79%
    07:00 +26°C° 0 mm 0 m/s 760 mmHg 75%
    08:00 +29°C° 0 mm 1 m/s 760 mmHg 67%
    09:00 +31°C° 0 mm 2 m/s 760 mmHg 60%
    10:00 +33°C° 0 mm 3 m/s 759 mmHg 52%
    11:00 +34°C° 0 mm 3 m/s 759 mmHg 50%
    12:00 +35°C° 0 mm 4 m/s 759 mmHg 48%
    13:00 +35°C° 0 mm 4 m/s 758 mmHg 46%
    14:00 +34°C° 0 mm 5 m/s 758 mmHg 48%
    15:00 +34°C° 0 mm 5 m/s 758 mmHg 50%
    16:00 +33°C° 0 mm 5 m/s 757 mmHg 52%
    17:00 +32°C° 0 mm 4 m/s 758 mmHg 59%
    18:00 +29°C° 0 mm 4 m/s 758 mmHg 66%
    19:00 +28°C° 0 mm 3 m/s 758 mmHg 72%
    20:00 +27°C° 0 mm 3 m/s 759 mmHg 77%
    21:00 +27°C° 0 mm 3 m/s 759 mmHg 81%
    22:00 +26°C° 0 mm 3 m/s 760 mmHg 85%
    23:00 +26°C° 0 mm 2 m/s 760 mmHg 86%

    26 Janvier, Samedi

    Heure Température Précipitation Vent Pression Humidité
    00:00 +25°C° 0 mm 2 m/s 759 mmHg 87%
    01:00 +25°C° 0 mm 2 m/s 759 mmHg 88%
    02:00 +25°C° 0 mm 2 m/s 759 mmHg 89%
    03:00 +25°C° 0 mm 1 m/s 759 mmHg 90%
    04:00 +24°C° 0 mm 1 m/s 758 mmHg 90%
    05:00 +25°C° 0 mm 1 m/s 759 mmHg 86%
    06:00 +26°C° 0 mm 1 m/s 759 mmHg 82%
    07:00 +27°C° 0 mm 2 m/s 759 mmHg 78%
    08:00 +28°C° 0 mm 2 m/s 759 mmHg 72%
    09:00 +29°C° 0 mm 3 m/s 759 mmHg 66%
    10:00 +30°C° 0 mm 3 m/s 759 mmHg 60%
    11:00 +32°C° 0 mm 4 m/s 759 mmHg 55%
    12:00 +33°C° 0 mm 4 m/s 758 mmHg 50%
    13:00 +34°C° 0 mm 4 m/s 758 mmHg 46%
    14:00 +33°C° 0 mm 4 m/s 757 mmHg 47%
    15:00 +33°C° 0 mm 5 m/s 757 mmHg 49%
    16:00 +33°C° 0 mm 5 m/s 756 mmHg 51%
    17:00 +30°C° 0 mm 4 m/s 757 mmHg 59%
    18:00 +29°C° 0 mm 4 m/s 757 mmHg 67%
    19:00 +27°C° 0 mm 3 m/s 758 mmHg 76%
    20:00 +27°C° 0 mm 3 m/s 758 mmHg 78%
    21:00 +26°C° 0 mm 3 m/s 758 mmHg 81%
    22:00 +26°C° 0 mm 3 m/s 759 mmHg 84%
    23:00 +25°C° 0 mm 3 m/s 758 mmHg 85%

    27 Janvier, Dimanche

    Heure Température Précipitation Vent Pression Humidité
    00:00 +25°C° 0 mm 3 m/s 758 mmHg 85%
    01:00 +25°C° 0 mm 2 m/s 758 mmHg 86%
    02:00 +25°C° 0 mm 2 m/s 758 mmHg 86%
    03:00 +25°C° 0 mm 2 m/s 757 mmHg 87%
    04:00 +24°C° 0 mm 2 m/s 757 mmHg 87%
    05:00 +25°C° 0 mm 2 m/s 758 mmHg 83%
    06:00 +26°C° 0 mm 2 m/s 758 mmHg 79%
    07:00 +27°C° 0 mm 2 m/s 759 mmHg 75%
    08:00 +28°C° 0 mm 2 m/s 759 mmHg 69%
    09:00 +29°C° 0 mm 3 m/s 759 mmHg 64%
    10:00 +30°C° 0 mm 3 m/s 759 mmHg 58%
    11:00 +32°C° 0 mm 4 m/s 758 mmHg 54%
    12:00 +33°C° 0 mm 4 m/s 758 mmHg 51%
    13:00 +34°C° 0 mm 4 m/s 757 mmHg 47%
    14:00 +33°C° 0 mm 4 m/s 757 mmHg 50%
    15:00 +32°C° 0 mm 4 m/s 757 mmHg 53%
    16:00 +30°C° 0 mm 4 m/s 756 mmHg 57%
    17:00 +29°C° 0 mm 4 m/s 757 mmHg 62%
    18:00 +28°C° 0 mm 4 m/s 757 mmHg 67%
    19:00 +27°C° 0 mm 3 m/s 758 mmHg 72%
    20:00 +26°C° 0 mm 3 m/s 758 mmHg 75%
    21:00 +26°C° 0 mm 3 m/s 759 mmHg 77%
    22:00 +26°C° 0 mm 3 m/s 759 mmHg 80%
    23:00 +25°C° 0 mm 2 m/s 759 mmHg 81%

    28 Janvier, Lundi

    Heure Température Précipitation Vent Pression Humidité
    00:00 +25°C° 0 mm 2 m/s 759 mmHg 83%
    01:00 +25°C° 0 mm 2 m/s 759 mmHg 85%
    02:00 +24°C° 0 mm 2 m/s 758 mmHg 85%
    03:00 +24°C° 0 mm 1 m/s 758 mmHg 86%
    04:00 +24°C° 0 mm 1 m/s 758 mmHg 87%
    05:00 +25°C° 0 mm 1 m/s 759 mmHg 82%
    06:00 +26°C° 0 mm 1 m/s 759 mmHg 77%
    07:00 +27°C° 0 mm 1 m/s 760 mmHg 72%
    08:00 +29°C° 0 mm 2 m/s 760 mmHg 64%
    09:00 +30°C° 0 mm 3 m/s 760 mmHg 55%
    10:00 +33°C° 0 mm 3 m/s 760 mmHg 47%
    11:00 +34°C° 0 mm 4 m/s 759 mmHg 46%
    12:00 +34°C° 0 mm 4 m/s 759 mmHg 45%
    13:00 +35°C° 0 mm 4 m/s 758 mmHg 45%
    14:00 +34°C° 0.1 mm 4 m/s 758 mmHg 49%
    15:00 +34°C° 0.1 mm 5 m/s 758 mmHg 52%
    16:00 +33°C° 0.1 mm 5 m/s 758 mmHg 56%
    17:00 +32°C° 0 mm 5 m/s 758 mmHg 63%
    18:00 +29°C° 0 mm 4 m/s 759 mmHg 70%
    19:00 +28°C° 0 mm 4 m/s 759 mmHg 76%
    20:00 +27°C° 0 mm 4 m/s 760 mmHg 79%
    21:00 +27°C° 0 mm 3 m/s 760 mmHg 81%
    22:00 +26°C° 0 mm 3 m/s 761 mmHg 84%
    23:00 +26°C° 0 mm 2 m/s 760 mmHg 85%
    Voir plus